[[{"header":{"parameterUnit":"m.s-1","parameterCategory":1,"la1":30.2991,"la2":30.254,"lo1":-89.0895,"lo2":-89.0444,"dy":0.0017,"dx":0.0017,"nx":28,"ny":28,"refTime":"2026-01-10T03:00:00:Z","depth":0,"parameterNumber":2,"parameterNumberName":"U-component_of_WINDS"},"data":[0,0,0,0,0,0,0,0,0,0,0,0,0,0,0,0,0,0,0,0,0,0,0,0,0,0,0,0,0,0,0,0,0,0,0,0,0,0,0,0,0,0,0,0,0,0,0,0,0,0,0,0,0,0,0,0,0,0,0.3262,0.3262,0,0.3263,0.3263,0.3263,0.3247,0.3246,0.3246,0.3245,0.3247,0.3248,0.3248,0,0,0,0,0,0,0,0,0,0,0,0,0,0.3246,0.3247,0.3262,0.3262,0.3262,0.3263,0.3263,0.3263,0.3247,0.3246,0.3246,0.3245,0.3247,0.3248,0.3248,0,0,0,0,0,0,0,0,0,0,0,0,0,0.3251,0.3247,0.3262,0.3254,0.3253,0.3263,0.3263,0.3263,0.3247,0.3246,0.3246,0.3245,0.3247,0.3248,0.3248,0.3266,0,0,0.3251,0.3251,0,0,0,0,0,0,0,0,0.3251,0.3251,0.3255,0.3254,0.3254,0.3254,0.3258,0.3264,0.3247,0.3249,0.3245,0.3245,0.325,0.3251,0.3252,0.3266,0.3266,0.3251,0.3251,0.3251,0.3252,0,0,0,0,0,0,0,0.325,0.3251,0.3262,0.3255,0.3254,0.325,0.325,0.3259,0.3253,0.3249,0.3248,0.3248,0.325,0.3252,0.3252,0.3266,0.3251,0.3251,0.3252,0.3252,0.3295,0.3295,0,0,0,0,0,0,0.3251,0.3251,0.3262,0.3262,0.325,0.3251,0.3251,0.3255,0.3253,0.3252,0.3249,0.3247,0.3251,0.3251,0.3252,0.3273,0.3251,0.3252,0.3252,0.3294,0.3295,0.3296,0,0,0,0,0,0,0.3251,0.3252,0.3262,0.3256,0.3257,0.3252,0.3256,0.3255,0.3257,0.3253,0.3252,0.3252,0.325,0.3251,0.3263,0.3273,0.3252,0.3253,0.3293,0.3294,0.3295,0.3314,0,0,0,0,0,0,0.325,0.3252,0.3259,0.3257,0.3258,0.3272,0.3257,0.3255,0.3258,0.3256,0.3256,0.3255,0.325,0.3262,0.3263,0.3273,0.3253,0.3292,0.3294,0.3295,0.3313,0.3316,0.3319,0,0,0,0,0,0.325,0.3264,0.3259,0.326,0.3266,0.3273,0.3274,0.3267,0.3259,0.3265,0.3263,0.3255,0.3271,0.3263,0.3265,0.3275,0.3291,0.3293,0.3295,0.3312,0.3315,0.3319,0,0,0,0,0,0,0.3267,0.3264,0.3258,0.3272,0.3273,0.327,0.3278,0.3271,0.3275,0.3273,0.3266,0.3266,0.3278,0.3278,0.3269,0.3292,0.328,0.3282,0.3292,0.3296,0.3299,0.3299,0.3254,0,0,0,0,0,0.3273,0.3279,0.3275,0.3288,0.3289,0.3283,0.3286,0.3281,0.3282,0.3283,0.3281,0.3282,0.3288,0.3292,0.3296,0.3312,0.3312,0.332,0.3323,0.3326,0.3328,0.3337,0.3341,0.3301,0.3301,0.3301,0,0,0.3284,0.3283,0.3287,0.3291,0.3292,0.3299,0.3284,0.3292,0.3297,0.3284,0.3295,0.3294,0.3295,0.3309,0.3315,0.3308,0.3339,0.3328,0.333,0.3331,0.3339,0.3343,0.3346,0.3302,0.3302,0.3302,0,0,0.3309,0.3308,0.3319,0.3319,0.332,0.3316,0.3319,0.3317,0.3316,0.3326,0.3317,0.3323,0.3332,0.3334,0.3335,0.336,0.3353,0.3362,0.3378,0.3387,0.339,0.3393,0.3402,0.3405,0.3364,0.3364,0.3364,0,0.3323,0.3333,0.3325,0.3334,0.3336,0.3324,0.3335,0.3336,0.3338,0.334,0.3333,0.3345,0.3345,0.3359,0.3365,0.3367,0.337,0.3363,0.339,0.3393,0.3395,0.3404,0.3408,0.3365,0.3365,0.3365,0.3365,0,0.3351,0.3358,0.3366,0.3368,0.3372,0.3381,0.3375,0.338,0.3374,0.3372,0.3383,0.3382,0.3387,0.3389,0.3384,0.3403,0.3399,0.3391,0.3379,0.34,0.3408,0.3412,0.3367,0.3366,0.3366,0.3366,0,0,0.3387,0.3384,0.3388,0.3389,0.3389,0.3394,0.3403,0.3407,0.3412,0.3413,0.3421,0.3429,0.3422,0.3424,0.3419,0.3426,0.3447,0.3417,0.3417,0.3423,0.3468,0.3475,0.3479,0.3442,0.3442,0.3443,0.3468,0,0.3411,0.3427,0.342,0.3437,0.3443,0.3432,0.344,0.3441,0.3439,0.3444,0.3441,0.3448,0.3437,0.3438,0.3445,0.3443,0.3456,0.3441,0.345,0.345,0.3451,0.3483,0.3491,0.3515,0.3472,0.3472,0.3473,0,0.3442,0.3445,0.3462,0.3461,0.3463,0.3471,0.3474,0.3479,0.348,0.3478,0.348,0.3473,0.3483,0.347,0.3483,0.3473,0.3476,0.3475,0.3476,0.3477,0.3463,0.3486,0.3522,0.3526,0.3478,0.3477,0.3477,0,0.3467,0.3475,0.3487,0.3488,0.3487,0.3492,0.3492,0.3492,0.3495,0.3498,0.35,0.3504,0.3507,0.351,0.3505,0.3496,0.3519,0.3506,0.3518,0.3518,0.3524,0.3524,0.3562,0.3525,0.3525,0.3525,0.3525,0,0.3495,0.3506,0.3498,0.3506,0.3518,0.351,0.3523,0.3521,0.3521,0.3528,0.3518,0.3525,0.3517,0.3523,0.3519,0.3531,0.3532,0.3531,0.3529,0.3532,0.3532,0.3534,0.3533,0.3526,0.3525,0.3525,0.3525,0,0.3526,0.3521,0.3533,0.3531,0.353,0.354,0.3538,0.3544,0.3541,0.355,0.3552,0.3547,0.3553,0.3548,0.3555,0.3552,0.3568,0.3564,0.3567,0.3567,0.358,0.3579,0.3621,0.3626,0.3585,0.3585,0.3586,0,0.3545,0.3553,0.3552,0.3556,0.3556,0.3563,0.3566,0.3558,0.3562,0.3564,0.357,0.3576,0.358,0.3591,0.3589,0.3594,0.359,0.3605,0.3591,0.3593,0.3591,0.3591,0.3592,0.3608,0.3608,0.3609,0.3609,0,0.3579,0.3576,0.3581,0.3585,0.3589,0.3592,0.3594,0.3598,0.3591,0.3595,0.3602,0.3605,0.3612,0.3618,0.3622,0.3622,0.3614,0.3613,0.3616,0.3619,0.3621,0.3621,0.3576,0.3612,0.3612,0.3612,0.3612,0.3611,0.3605,0.3612,0.3612,0.3618,0.3619,0.3621,0.3628,0.3625,0.3631,0.3635,0.3631,0.3639,0.364,0.3644,0.3645,0.3651,0.3645,0.365,0.3651,0.3653,0.3655,0.362,0.3652,0.3652,0.3652,0.3652,0.3651,0,0.3639,0.3639,0.3644,0.3648,0.3652,0.3645,0.3647,0.3651,0.3658,0.366,0.3664,0.3672,0.3678,0.3675,0.368,0.3686,0.3683,0.3688,0.3688,0.3688,0.3659,0.3656,0.369,0.369,0.369,0.369,0.369,0.369,0.3657,0.3669,0.3666,0.3679,0.3678,0.3686,0.3688,0.369,0.3691,0.37,0.3705,0.3704,0.3703,0.3708,0.3713,0.3713,0.3715,0.3722,0.372,0.3693,0.369,0.3686,0.3683,0.3722,0.3722,0.3747,0.3748,0.3748]},{"header":{"parameterUnit":"m.s-1","parameterCategory":1,"la1":30.2991,"la2":30.254,"lo1":-89.0895,"lo2":-89.0444,"dy":0.0017,"dx":0.0017,"nx":28,"ny":28,"refTime":"2026-01-10T03:00:00:Z","depth":0,"parameterNumber":3,"parameterNumberName":"V-component_of_WINDS"},"data":[0,0,0,0,0,0,0,0,0,0,0,0,0,0,0,0,0,0,0,0,0,0,0,0,0,0,0,0,0,0,0,0,0,0,0,0,0,0,0,0,0,0,0,0,0,0,0,0,0,0,0,0,0,0,0,0,0,0,4.692,4.6922,0,4.7135,4.7138,4.714,4.7188,4.7187,4.7185,4.7184,4.7408,4.7415,4.7422,0,0,0,0,0,0,0,0,0,0,0,0,0,4.6556,4.6562,4.692,4.6923,4.6925,4.7135,4.7138,4.7141,4.7189,4.7187,4.7185,4.7183,4.7405,4.7414,4.7423,0,0,0,0,0,0,0,0,0,0,0,0,0,4.6737,4.6564,4.6919,4.6974,4.6981,4.7134,4.7138,4.7141,4.7189,4.7187,4.7184,4.7182,4.7402,4.7413,4.7424,4.7538,0,0,4.7458,4.7463,0,0,0,0,0,0,0,0,4.6726,4.675,4.6964,4.6971,4.6979,4.7132,4.7091,4.7275,4.7189,4.711,4.7184,4.7181,4.7318,4.7336,4.7382,4.7549,4.7558,4.7459,4.7466,4.747,4.7473,0,0,0,0,0,0,0,4.6714,4.6741,4.7005,4.6967,4.6976,4.699,4.7013,4.7126,4.7225,4.7117,4.7121,4.7146,4.7322,4.7371,4.7387,4.7562,4.7459,4.7468,4.7475,4.748,4.7838,4.7841,0,0,0,0,0,0,4.6691,4.673,4.6998,4.7012,4.6844,4.6998,4.7024,4.7086,4.7223,4.7242,4.7147,4.7147,4.7353,4.7374,4.7395,4.7542,4.747,4.7481,4.7487,4.7835,4.7839,4.7842,0,0,0,0,0,0,4.6683,4.6714,4.699,4.6872,4.6908,4.7007,4.7076,4.7091,4.714,4.7246,4.7265,4.7179,4.7352,4.738,4.7503,4.755,4.7486,4.7496,4.7832,4.7837,4.7841,4.7833,0,0,0,0,0,0,4.6672,4.6711,4.6754,4.6873,4.6914,4.7092,4.7078,4.7097,4.7158,4.716,4.7281,4.7299,4.7352,4.7486,4.7514,4.7564,4.7504,4.7828,4.7834,4.7839,4.7829,4.7836,4.7842,0,0,0,0,0,4.6659,4.6743,4.6756,4.6788,4.697,4.7095,4.7119,4.7178,4.7162,4.7207,4.7276,4.7295,4.7539,4.7499,4.753,4.7584,4.7826,4.7832,4.7839,4.7826,4.7835,4.7842,0,0,0,0,0,0,4.6629,4.676,4.6776,4.69,4.6986,4.7103,4.7162,4.7184,4.7277,4.7275,4.7345,4.7372,4.7493,4.755,4.7502,4.7704,4.7682,4.7695,4.7662,4.7671,4.7677,4.7662,4.7514,0,0,0,0,0,4.6636,4.6725,4.6835,4.6935,4.6977,4.7062,4.7118,4.7157,4.7249,4.7286,4.7363,4.7453,4.7551,4.7614,4.7709,4.7837,4.7866,4.789,4.7896,4.7901,4.7913,4.7988,4.8001,4.7863,4.7863,4.7863,0,0,4.6653,4.6736,4.6788,4.6931,4.7002,4.7095,4.7092,4.7189,4.726,4.7301,4.7423,4.7483,4.7588,4.7716,4.7775,4.7768,4.7957,4.7909,4.7912,4.7922,4.7996,4.8009,4.8021,4.7868,4.7867,4.7866,0,0,4.6732,4.6802,4.6895,4.6966,4.7073,4.7129,4.7151,4.7266,4.7307,4.743,4.7464,4.7549,4.7715,4.779,4.7849,4.7959,4.7981,4.7988,4.8023,4.8096,4.8107,4.8117,4.8159,4.8173,4.7998,4.7998,4.7998,0,4.674,4.688,4.6939,4.7036,4.71,4.714,4.7236,4.7303,4.7436,4.748,4.7469,4.768,4.7753,4.79,4.7927,4.7973,4.8003,4.7976,4.81,4.8111,4.8121,4.8162,4.8178,4.7999,4.7999,4.7999,4.7999,0,4.6886,4.6983,4.7045,4.7172,4.7243,4.7338,4.7415,4.7479,4.7511,4.7569,4.7696,4.7786,4.7902,4.7939,4.7971,4.8092,4.8084,4.8085,4.8066,4.8133,4.8174,4.819,4.7999,4.7999,4.7999,4.7999,0,0,4.6952,4.7113,4.7135,4.7195,4.7317,4.7394,4.7493,4.7605,4.7661,4.7752,4.7839,4.7979,4.7982,4.8049,4.8091,4.8154,4.824,4.8149,4.8152,4.8165,4.8383,4.8383,4.84,4.8254,4.8257,4.826,4.8375,0,4.7048,4.7225,4.7283,4.7431,4.7523,4.7564,4.765,4.7736,4.7793,4.7881,4.7945,4.8044,4.8038,4.808,4.8145,4.8216,4.8285,4.8208,4.8339,4.8343,4.8314,4.8421,4.8421,4.8525,4.8391,4.8393,4.8395,0,4.7184,4.7278,4.7435,4.7549,4.7589,4.7666,4.7776,4.7858,4.7957,4.7995,4.8071,4.8108,4.8216,4.8188,4.8339,4.8285,4.8342,4.8385,4.8391,4.8408,4.8375,4.8444,4.8559,4.8576,4.842,4.8418,4.8416,0,4.7221,4.7386,4.7502,4.7552,4.7686,4.774,4.7799,4.7895,4.796,4.8057,4.81,4.8208,4.8267,4.8351,4.8417,4.839,4.8564,4.854,4.86,4.8599,4.8637,4.8634,4.8767,4.8668,4.8668,4.8668,4.8668,0,4.7324,4.742,4.7521,4.7593,4.7702,4.7768,4.7875,4.7936,4.8022,4.8109,4.815,4.823,4.8311,4.8403,4.8455,4.8575,4.86,4.8636,4.8649,4.8634,4.863,4.8674,4.867,4.8672,4.8671,4.867,4.867,0,4.7384,4.7455,4.7586,4.7702,4.7734,4.781,4.7911,4.7984,4.8043,4.8152,4.8181,4.8275,4.8385,4.8459,4.86,4.8636,4.8767,4.8777,4.8733,4.874,4.8798,4.8792,4.8966,4.8994,4.8873,4.8874,4.8875,0,4.7447,4.7521,4.7647,4.7707,4.7766,4.7862,4.793,4.7998,4.8067,4.8187,4.8246,4.8359,4.8453,4.8628,4.871,4.8819,4.8835,4.8888,4.8851,4.8835,4.884,4.8836,4.8845,4.8894,4.8895,4.8896,4.8897,0,4.7551,4.7584,4.7678,4.7786,4.7864,4.7952,4.8041,4.8088,4.8173,4.8248,4.8361,4.8435,4.8579,4.8693,4.881,4.8873,4.8901,4.8907,4.8928,4.8914,4.8888,4.8906,4.8752,4.8904,4.8903,4.8902,4.8902,4.8902,4.7617,4.7687,4.7787,4.7891,4.7965,4.8047,4.8122,4.8191,4.8286,4.8409,4.8444,4.8563,4.8664,4.8824,4.8889,4.8985,4.898,4.9008,4.9016,4.9023,4.9025,4.8869,4.9006,4.9006,4.9006,4.9006,4.9006,0,4.7727,4.7794,4.7889,4.8012,4.8095,4.8112,4.8212,4.8281,4.8385,4.8475,4.8568,4.87,4.881,4.8901,4.9016,4.9075,4.9091,4.9104,4.9102,4.9116,4.9021,4.8994,4.9089,4.9089,4.9089,4.9089,4.9089,4.9089,4.7794,4.7914,4.7958,4.8116,4.8182,4.8299,4.8355,4.8432,4.8505,4.8651,4.8743,4.8801,4.8893,4.9015,4.9118,4.9142,4.9184,4.9194,4.9222,4.9132,4.9122,4.9114,4.9088,4.9202,4.9202,4.9309,4.931,4.9311]}]]